Miscellaneous Local Product
Issued by NWS North Platte, NE

Home | Current Version | Previous Version | Graphics & Text | Print | Product List | Glossary On
Versions: 1 2 3 4 5 6 7 8 9 10 11 12 13 14 15 16 17 18 19 20 21 22 23 24 25 26 27 28 29 30 31 32 33 34 35 36 37 38 39 40 41 42 43 44 45 46 47 48 49 50
000
AXUS43 KLBF 030110
MISLBF


WESTERN AND NORTH CENTRAL NEBRASKA HOURLY WEATHER ROUNDUP
NATIONAL WEATHER SERVICE NORTH PLATTE NE
800 PM CDT THU JUL 02 2015

***STATIONS NOT REPORTING VARIABLES SUCH AS SKY/WEATHER OR
PRESSURE ARE PROVIDED BY THE NEBRASKA DEPARTMENT OF
ROADS...RAWS...AND APRS NETWORKS...AND ARE NOT UNDER
NATIONAL WEATHER SERVICE QUALITY CONTROL***

...OBSERVATIONS IN AND NEAR THE EASTERN PANHANDLE OF NEBRASKA...

CITY           SKY/WX    TMP DP  RH WIND       PRES   REMARKS
PINE RIDGE     SUNNY     76  58  53 NE6       30.06S
CHADRON        MOSUNNY   77  60  55 NE10      30.06S
ALLIANCE       MOSUNNY   76  60  57 N9        30.07S
SIDNEY         SUNNY     79  55  43 NE7       30.11S
WHITECLAY        N/A     75  58  53 E6          N/A
CRESCENT LAKE    N/A     77  55  45 NE8         N/A
BIG SPRINGS      N/A     80  60  50 NE3         N/A
$$

...OBSERVATIONS IN NORTH CENTRAL NEBRASKA...

CITY           SKY/WX    TMP DP  RH WIND       PRES   REMARKS
VALENTINE      MOSUNNY   76  60  57 NE10      30.00S
THEDFORD       MOSUNNY   77  59  53 N9        30.02S
AINSWORTH      MOSUNNY   75  59  56 N12       30.01R
O`NEILL        PTSUNNY   70  65  85 E9        29.99R
ORD            MOSUNNY   74  64  71 NE10      29.95R
BROKEN BOW     SUNNY     78  61  55 N9        29.97R
VALENTINE NWR    N/A     76  56  50 N9G16       N/A
SPRINGVIEW       N/A     73  64  73 NE5G14      N/A
HALSEY           N/A     77  56  47 N7G14       N/A
BREWSTER         N/A     81  62  51 N8          N/A
ROSE             N/A     86  73  66 N10         N/A  HX  93
NEWPORT          N/A     71  67  87 E8          N/A
SARGENT          N/A     77  60  56 NE3         N/A
CHAMBERS         N/A     72  64  76 E6          N/A
EWING            N/A     66  63  91 E6          N/A
$$

...OBSERVATIONS IN SOUTHWEST NEBRASKA AND FAR NORTHEAST COLORADO...

CITY           SKY/WX    TMP DP  RH WIND       PRES   REMARKS
WRAY           FAIR      83  54  37 N9        30.06S
HOLYOKE        FAIR      81  55  41 NE9       30.07R
IMPERIAL       SUNNY     81  59  47 N8        30.04R
OGALLALA       SUNNY     79  58  47 N8        30.04S
NORTH PLATTE   SUNNY     79  57  46 N9        30.01R
MCCOOK         SUNNY     82  59  45 N14       29.98R
LEXINGTON      SUNNY     80  58  47 N10       29.97S
PAXTON           N/A     80  61  51 N7          N/A
GOTHENBURG       N/A     79  53  39 N7          N/A
CALLAWAY         N/A     77  60  56 N7          N/A
$$

...NORTH PLATTE AREA...

CITY           SKY/WX    TMP DP  RH WIND       PRES   REMARKS
AIRPORT        SUNNY     79  57  46 N9        30.01R
DOWNTOWN         N/A     79  60  51 N3          N/A
HILLCREST        N/A     78  58  49 NE10        N/A
$$

...SOME WEATHER OBSERVATIONS FROM AROUND THE REGION...

CITY           SKY/WX    TMP DP  RH WIND       PRES   REMARKS
DENVER         PTSUNNY   77  50  38 SE9       30.14S
LARAMIE        MOSUNNY   66  52  60 SE13      30.27S
CHEYENNE       CLOUDY    73  52  47 SE6       30.20F
SCOTTSBLUFF    SUNNY     81  54  39 N13       30.08S
RAPID CITY     SUNNY     76  58  53 N10       30.06S
PIERRE         MOSUNNY   74  65  73 SE3       29.95S
WINNER         FAIR      75  61  61 E10       29.98S
SIOUX FALLS    PTSUNNY   68  59  73 S6        29.98S
OMAHA          CLOUDY    70  62  76 E5        29.94S
GRAND ISLAND   SUNNY     73  66  78 NE13      29.95R
KANSAS CITY    LGT RAIN  69  66  90 SE8       29.91S FOG
WICHITA        CLEAR     79  67  66 NW6       29.89R
HAYS           MOSUNNY   84  63  48 W5        29.91S
LIBERAL        PTSUNNY   73  64  73 E14       30.03R
GOODLAND       SUNNY     82  54  37 N13       30.04S
$$



USA.gov is the U.S. government's official web portal to all federal, state and local government web resources and services.